Location: Unspecified
(0.0000°N, 0.0000°E)
Time: 18:36:07
(UTC+00:00)

ISS - Pass Details

Date: 17 October 2021
Orbit: 417 x 423 km, 51.6° (Epoch: 24 October)

Event Time Altitude Azimuth Distance (km) Brightness Sun altitude
Exits shadow 03:56:57 - 166° (SSE) 1,669 -0.5 -26.7°
Reaches altitude 10° 03:57:41 10° 157° (SSE) 1,500 -0.6 -26.5°
Maximum altitude 03:59:23 13° 126° (SE) 1,314 -0.5 -26.1°
Drops below altitude 10° 04:01:05 10° 96° (E) 1,496 0.1 -25.7°
Sets 04:04:01 0° 67° (ENE) 2,354 0.9 -25.0°
